Location: Eindhoven
(51.4416°N, 5.4697°E)
Time: 11:50:04
(UTC+01:00)

deb Explorer IX - Pass Details

Date: 19 November 2019
Orbit: 545 x 1105 km, 38.8° (Epoch: 08 December)

Event Time Altitude Azimuth Distance (km) Brightness Sun altitude
Rises 03:11:48 0° 238° (WSW) 3,584 - -44.1°
Reaches altitude 10° 03:15:09 10° 224° (SW) 2,533 - -43.6°
Maximum altitude 03:19:31 21° 177° (S) 1,723 - -43.0°
Drops below altitude 10° 03:23:28 10° 128° (SE) 2,242 - -42.4°
Exits shadow 03:25:22 - 116° (ESE) 2,791 ? -42.2°
Sets 03:26:12 0° 113° (ESE) 3,064 ? -42.1°
